This is the latest recevied weather packets stored in our database for station/object KK7RJD. If no packets are shown the sender has not sent any weather packets the latest 10 day(s).
| Time | Temp. | Humidity | Pressure | Rain* | Wind** | Luminosity | Snow |
|---|---|---|---|---|---|---|---|
| 1777787391 | 10° C | 54% | 1015.4 hPa | 0 mm | - | 0 W/m² | - |
| 1777787087 | 10° C | 55% | 1015.6 hPa | 0 mm | - | 0 W/m² | - |
| 1777786785 | 9.44° C | 56% | 1015.6 hPa | 0 mm | - | 0 W/m² | - |
| 1777786483 | 8.89° C | 58% | 1015.6 hPa | 0 mm | - | 0 W/m² | - |
| 1777786179 | 8.89° C | 58% | 1015.4 hPa | 0 mm | - | 0 W/m² | - |
| 1777785877 | 8.89° C | 58% | 1015.4 hPa | 0 mm | - | 0 W/m² | - |
| 1777785573 | 9.44° C | 56% | 1015.6 hPa | 0 mm | - | 0 W/m² | - |
| 1777785269 | 10° C | 54% | 1015.3 hPa | 0 mm | - | 0 W/m² | - |
| 1777784966 | 10.56° C | 54% | 1015.4 hPa | 0 mm | - | 0 W/m² | - |
| 1777784662 | 10.56° C | 53% | 1015.7 hPa | 0 mm | - | 0 W/m² | - |
| 1777784360 | 10.56° C | 53% | 1015.4 hPa | 0 mm | - | 0 W/m² | - |
| 1777784057 | 10.56° C | 52% | 1015.4 hPa | 0 mm | - | 0 W/m² | - |
| 1777783754 | 11.11° C | 51% | 1015.7 hPa | 0 mm | - | 0 W/m² | - |
| 1777783451 | 11.11° C | 50% | 1015.4 hPa | 0 mm | - | 0 W/m² | - |
| 1777783148 | 11.11° C | 50% | 1015.7 hPa | 0 mm | - | 0 W/m² | - |
| 1777782844 | 11.67° C | 50% | 1015.7 hPa | 0 mm | - | 0 W/m² | - |
| 1777782541 | 11.67° C | 49% | 1015.4 hPa | 0 mm | - | 0 W/m² | - |
| 1777782237 | 12.22° C | 47% | 1015.6 hPa | 0 mm | - | 0 W/m² | - |
| 1777781933 | 12.22° C | 46% | 1015.7 hPa | 0 mm | - | 0 W/m² | - |
| 1777781631 | 11.67° C | 46% | 1015.7 hPa | 0 mm | - | 0 W/m² | - |
| 1777781328 | 11.67° C | 46% | 1015.2 hPa | 0 mm | - | 0 W/m² | - |
| 1777781026 | 12.22° C | 47% | 1015.4 hPa | 0 mm | - | 0 W/m² | - |
| 1777780722 | 12.22° C | 46% | 1015.3 hPa | 0 mm | - | 0 W/m² | - |
| 1777780419 | 11.67° C | 47% | 1015.4 hPa | 0 mm | - | 0 W/m² | - |
| 1777780117 | 11.67° C | 48% | 1015.2 hPa | 0 mm | - | 0 W/m² | - |
* Rain latest hour (hover to see other rain measurements)
** Current wind speed in m/s (hover to see current wind gust speed)